Previsão horária em Cereté

Hoje, 3 Agosto, Terça-feira

Tempo Temperatura Precipitação Vento Pressão Humidade
00:00 +26°C° 0.5 mm 1 m/s 758 mmHg 93%
01:00 +26°C° 0 mm 1 m/s 757 mmHg 93%
02:00 +26°C° 0.7 mm 1 m/s 757 mmHg 93%
03:00 +26°C° 0.7 mm 1 m/s 757 mmHg 94%
04:00 +26°C° 0.7 mm 1 m/s 757 mmHg 94%
05:00 +26°C° 0.1 mm 1 m/s 757 mmHg 94%
06:00 +26°C° 0.1 mm 1 m/s 757 mmHg 94%
07:00 +26°C° 0 mm 1 m/s 758 mmHg 93%
08:00 +26°C° 0 mm 1 m/s 758 mmHg 93%
09:00 +26°C° 0 mm 2 m/s 759 mmHg 93%
10:00 +27°C° 0 mm 2 m/s 759 mmHg 93%
11:00 +28°C° 0 mm 2 m/s 759 mmHg 87%
12:00 +29°C° 0 mm 2 m/s 758 mmHg 82%
13:00 +30°C° 0 mm 2 m/s 757 mmHg 77%
14:00 +30°C° 0 mm 2 m/s 757 mmHg 78%
15:00 +30°C° 0 mm 2 m/s 756 mmHg 80%
16:00 +30°C° 0 mm 2 m/s 756 mmHg 82%
17:00 +29°C° 0 mm 2 m/s 756 mmHg 85%
18:00 +28°C° 0 mm 2 m/s 757 mmHg 88%
19:00 +27°C° 0 mm 3 m/s 757 mmHg 91%
20:00 +27°C° 0 mm 2 m/s 757 mmHg 91%
21:00 +26°C° 0 mm 2 m/s 758 mmHg 92%
22:00 +26°C° 0 mm 2 m/s 758 mmHg 92%
23:00 +26°C° 0 mm 1 m/s 758 mmHg 92%

Amanhã, 4 Agosto, Quarta-feira

Tempo Temperatura Precipitação Vento Pressão Humidade
00:00 +26°C° 0 mm 1 m/s 758 mmHg 93%
01:00 +24°C° 0 mm 0 m/s 758 mmHg 93%
02:00 +24°C° 0 mm 0 m/s 757 mmHg 93%
03:00 +23°C° 0 mm 0 m/s 757 mmHg 93%
04:00 +23°C° 0 mm 0 m/s 757 mmHg 94%
05:00 +24°C° 0 mm 0 m/s 757 mmHg 93%
06:00 +24°C° 0 mm 0 m/s 758 mmHg 92%
07:00 +24°C° 0 mm 0 m/s 758 mmHg 91%
08:00 +26°C° 0 mm 0 m/s 758 mmHg 86%
09:00 +29°C° 0 mm 1 m/s 758 mmHg 81%
10:00 +30°C° 0 mm 1 m/s 759 mmHg 75%
11:00 +31°C° 0.1 mm 1 m/s 758 mmHg 73%
12:00 +32°C° 0.1 mm 1 m/s 757 mmHg 71%
13:00 +32°C° 0.1 mm 1 m/s 757 mmHg 69%
14:00 +32°C° 0 mm 1 m/s 756 mmHg 68%
15:00 +32°C° 0 mm 1 m/s 756 mmHg 67%
16:00 +31°C° 0 mm 0 m/s 755 mmHg 66%
17:00 +31°C° 0.1 mm 1 m/s 756 mmHg 74%
18:00 +29°C° 0.1 mm 2 m/s 756 mmHg 81%
19:00 +28°C° 0.1 mm 3 m/s 757 mmHg 89%
20:00 +28°C° 0.2 mm 2 m/s 757 mmHg 90%
21:00 +27°C° 0.2 mm 2 m/s 757 mmHg 90%
22:00 +27°C° 0.2 mm 2 m/s 758 mmHg 91%
23:00 +27°C° 0.4 mm 1 m/s 758 mmHg 92%

Depois de amanhã, 5 Agosto, Quinta-feira

Tempo Temperatura Precipitação Vento Pressão Humidade
00:00 +27°C° 0.4 mm 1 m/s 757 mmHg 92%
01:00 +26°C° 0.4 mm 1 m/s 757 mmHg 92%
02:00 +26°C° 3.5 mm 2 m/s 757 mmHg 94%
03:00 +26°C° 3.5 mm 2 m/s 757 mmHg 95%
04:00 +26°C° 3.5 mm 3 m/s 757 mmHg 97%
05:00 +26°C° 0.9 mm 2 m/s 757 mmHg 95%
06:00 +25°C° 0.9 mm 2 m/s 758 mmHg 93%
07:00 +25°C° 0.9 mm 1 m/s 758 mmHg 92%
08:00 +26°C° 0 mm 1 m/s 758 mmHg 88%
09:00 +27°C° 0 mm 1 m/s 758 mmHg 85%
10:00 +28°C° 0 mm 1 m/s 759 mmHg 82%
11:00 +29°C° 0 mm 1 m/s 758 mmHg 79%
12:00 +29°C° 0 mm 1 m/s 758 mmHg 75%
13:00 +30°C° 0 mm 1 m/s 757 mmHg 72%
14:00 +31°C° 0 mm 1 m/s 757 mmHg 71%
15:00 +31°C° 0 mm 1 m/s 756 mmHg 70%
16:00 +31°C° 0 mm 1 m/s 756 mmHg 69%
17:00 +30°C° 0 mm 2 m/s 756 mmHg 75%
18:00 +29°C° 0 mm 2 m/s 757 mmHg 80%
19:00 +27°C° 0 mm 3 m/s 757 mmHg 86%
20:00 +27°C° 0 mm 3 m/s 757 mmHg 87%
21:00 +26°C° 0 mm 2 m/s 757 mmHg 88%
22:00 +26°C° 0 mm 2 m/s 758 mmHg 89%
23:00 +26°C° 1 mm 2 m/s 758 mmHg 91%

6 Agosto, Sexta-feira

Tempo Temperatura Precipitação Vento Pressão Humidade
00:00 +26°C° 1 mm 2 m/s 757 mmHg 93%
01:00 +25°C° 1 mm 1 m/s 757 mmHg 95%
02:00 +25°C° 1.1 mm 1 m/s 757 mmHg 95%
03:00 +25°C° 1.1 mm 1 m/s 757 mmHg 95%
04:00 +25°C° 1.1 mm 1 m/s 757 mmHg 96%
05:00 +26°C° 0.1 mm 1 m/s 757 mmHg 95%
06:00 +26°C° 0.1 mm 1 m/s 758 mmHg 95%
07:00 +26°C° 0.1 mm 1 m/s 758 mmHg 95%
08:00 +26°C° 0.1 mm 1 m/s 758 mmHg 92%
09:00 +27°C° 0.1 mm 1 m/s 758 mmHg 89%
10:00 +28°C° 0.1 mm 1 m/s 758 mmHg 86%
11:00 +29°C° 0 mm 1 m/s 758 mmHg 81%
12:00 +30°C° 0 mm 1 m/s 757 mmHg 76%
13:00 +31°C° 0 mm 1 m/s 757 mmHg 71%
14:00 +31°C° 0 mm 1 m/s 756 mmHg 70%
15:00 +32°C° 0 mm 1 m/s 756 mmHg 70%
16:00 +32°C° 0 mm 1 m/s 755 mmHg 70%
17:00 +30°C° 0 mm 2 m/s 756 mmHg 76%
18:00 +29°C° 0 mm 2 m/s 756 mmHg 83%
19:00 +27°C° 0 mm 3 m/s 757 mmHg 89%
20:00 +27°C° 0 mm 2 m/s 757 mmHg 89%
21:00 +27°C° 0 mm 2 m/s 757 mmHg 89%
22:00 +26°C° 0 mm 2 m/s 758 mmHg 89%
23:00 +26°C° 0 mm 2 m/s 757 mmHg 89%

7 Agosto, Sábado

Tempo Temperatura Precipitação Vento Pressão Humidade
00:00 +26°C° 0 mm 2 m/s 757 mmHg 90%
01:00 +26°C° 0 mm 2 m/s 757 mmHg 91%
02:00 +26°C° 0.4 mm 2 m/s 757 mmHg 91%
03:00 +26°C° 0.4 mm 1 m/s 757 mmHg 92%
04:00 +25°C° 0.4 mm 1 m/s 757 mmHg 93%
05:00 +25°C° 1.1 mm 1 m/s 757 mmHg 94%
06:00 +26°C° 1.1 mm 1 m/s 758 mmHg 95%
07:00 +26°C° 1.1 mm 1 m/s 758 mmHg 95%
08:00 +26°C° 0.1 mm 2 m/s 758 mmHg 93%
09:00 +27°C° 0.1 mm 2 m/s 758 mmHg 92%
10:00 +27°C° 0.1 mm 2 m/s 759 mmHg 90%
11:00 +28°C° 0 mm 2 m/s 758 mmHg 85%
12:00 +29°C° 0 mm 2 m/s 758 mmHg 81%
13:00 +30°C° 0 mm 1 m/s 757 mmHg 77%
14:00 +30°C° 0 mm 1 m/s 757 mmHg 76%
15:00 +31°C° 0 mm 2 m/s 756 mmHg 76%
16:00 +31°C° 0 mm 2 m/s 756 mmHg 75%
17:00 +30°C° 0 mm 2 m/s 756 mmHg 80%
18:00 +29°C° 0 mm 2 m/s 757 mmHg 84%
19:00 +27°C° 0 mm 2 m/s 757 mmHg 88%
20:00 +27°C° 0 mm 2 m/s 757 mmHg 89%
21:00 +27°C° 0 mm 2 m/s 758 mmHg 90%
22:00 +26°C° 0 mm 2 m/s 758 mmHg 90%
23:00 +26°C° 0 mm 2 m/s 758 mmHg 91%

8 Agosto, Domingo

Tempo Temperatura Precipitação Vento Pressão Humidade
00:00 +26°C° 0 mm 2 m/s 758 mmHg 91%
01:00 +26°C° 0 mm 1 m/s 757 mmHg 91%
02:00 +26°C° 0 mm 1 m/s 757 mmHg 92%
03:00 +26°C° 0 mm 1 m/s 757 mmHg 92%
04:00 +25°C° 0 mm 1 m/s 757 mmHg 93%
05:00 +26°C° 0.2 mm 1 m/s 757 mmHg 93%
06:00 +26°C° 0.2 mm 1 m/s 757 mmHg 92%
07:00 +26°C° 0.2 mm 1 m/s 758 mmHg 92%
08:00 +28°C° 0.4 mm 1 m/s 758 mmHg 88%
09:00 +29°C° 0.4 mm 2 m/s 758 mmHg 83%
10:00 +30°C° 0.4 mm 2 m/s 758 mmHg 78%
11:00 +31°C° 0.3 mm 2 m/s 758 mmHg 76%
12:00 +31°C° 0.3 mm 2 m/s 757 mmHg 74%
13:00 +33°C° 0.3 mm 3 m/s 757 mmHg 72%
14:00 +33°C° 0.4 mm 3 m/s 756 mmHg 73%
15:00 +31°C° 0.4 mm 3 m/s 756 mmHg 74%
16:00 +32°C° 0.4 mm 4 m/s 755 mmHg 75%
17:00 +30°C° 0.1 mm 3 m/s 756 mmHg 79%
18:00 +29°C° 0.1 mm 3 m/s 756 mmHg 84%
19:00 +27°C° 0.1 mm 2 m/s 757 mmHg 89%
20:00 +27°C° 0.1 mm 2 m/s 757 mmHg 89%
21:00 +27°C° 0.1 mm 2 m/s 758 mmHg 89%
22:00 +27°C° 0.1 mm 2 m/s 758 mmHg 89%
23:00 +26°C° 1.2 mm 2 m/s 758 mmHg 91%
Mostrar mais

Necessitamos do seu Consentimento

A Meteoprog e os seus Fornecedores de Serviços podem armazenar e aceder a dados pessoais como cookies, identificadores do dispositivo ou outras tecnologias semelhantes existentes no seu dispositivo e processar estes dados para personalizar conteúdos e anúncios, assim como funcionalidades nas redes sociais e análise de tráfego.

  • Armazenar e/ou aceder a informações no seu dispositivo

    Os cookies, identificadores do dispositivo ou outras informações podem ser armazenados ou acedidos no seu dispositivo, para os fins acima indicados.

  • Anúncios e conteúdos personalizados, medição de anúncios e conteúdos, dados sobre o público-alvo e desenvolvimento de produtos

    Os anúncios e os conteúdos podem ser personalizados com base num perfil. Podem ser adicionados dados adicionais para uma maior personalização dos anúncios e dos conteúdos. A eficácia dos anúncios e dos conteúdos pode ser medida. Podem ser obtidas informações sobre o público que visualizou os anúncios e os conteúdos. Estes dados podem ser usados para desenvolver ou melhorar sistemas, softwares ou a experiência do utilizador.

Ao clicar em "Eu concordo”, permitirá o uso de cookies, identificadores do dispositivo e web beacons mencionados ou outras tecnologias semelhantes. As configurações do navegador do seu dispositivo podem ser alteradas.

Para certos fins, podem ser invocados interesses legítimos ao invés de consentimento. Pode ler mais informação sobre este assunto na nossa Política de Privacidade e Cookies.